Penn Yan, NY

2:30 PM EST on December 08, 2019 (GMT -0500)
Penn Yan

Weather History for KPEO - November, 2019

Change the Weather History Date:

Saturday, November 16, 2019

  Actual Average (WUND) Record (WUND)
Temperature  
Mean Temperature 24 °F -  
Max Temperature 30 °F - - (-1)
Min Temperature 19 °F - - (-1)
Degree Days  
Heating Degree Days 40    
Moisture  
Dew Point 12 °F    
Average Humidity 61    
Maximum Humidity 81    
Minimum Humidity 45    
Precipitation  
Precipitation 0.00 in - - ()
Sea Level Pressure  
Sea Level Pressure 30.51 in    
Wind  
Wind Speed 5 mph (NNE)    
Max Wind Speed 9 mph    
Max Gust Speed -    
Visibility 10 miles    
Events      
Averages and records for this station are not official NWS values.
T = Trace of Precipitation, MM = Missing Value Source: NWS Daily Summary

Daily Weather History Graph

Daily Weather History Graph

Search for Another Location

Airport or City:

Astronomy

Nov. 16, 2019 Rise Set
Actual Time 7:00 AM EST 4:44 PM EST
Civil Twilight 6:30 AM EST 5:15 PM EST
Nautical Twilight 5:55 AM EST 5:49 PM EST
Astronomical Twilight 5:22 AM EST 6:22 PM EST
Moon 8:13 PM EST (11/16) 10:55 AM EST (11/16)
Length of Visible Light 10h 45m
Length of Day
9h 44m
Waning Gibbous, 82% of the Moon is Illuminated
Nov 16
Waning Gibbous
Nov 19
Last Quarter
Nov 26
New
Dec 4
First Quarter
Dec 12
Full

Hourly Weather History & Observations

Time (EST) Temp. Windchill Dew Point Humidity Pressure Visibility Wind Dir Wind Speed Gust Speed Precip Events Conditions
12:53 AM 28.9 °F 20.4 °F 17.1 °F 61% 30.42 in 10.0 mi North 9.2 mph - N/A   Mostly Cloudy
1:53 AM 27.0 °F 19.5 °F 12.9 °F 56% 30.44 in 10.0 mi Variable 6.9 mph - N/A   Clear
2:53 AM 25.0 °F 19.3 °F 14.0 °F 63% 30.45 in 10.0 mi North 4.6 mph - N/A   Partly Cloudy
3:53 AM 24.1 °F 15.2 °F 14.0 °F 65% 30.45 in 10.0 mi NE 8.1 mph - N/A   Scattered Clouds
4:53 AM 23.0 °F 14.7 °F 12.0 °F 63% 30.48 in 10.0 mi Variable 6.9 mph - N/A   Clear
5:53 AM 21.0 °F 16.2 °F 9.0 °F 60% 30.51 in 10.0 mi Variable 3.5 mph - N/A   Clear
6:53 AM 19.9 °F 13.4 °F 10.9 °F 68% 30.53 in 10.0 mi NNE 4.6 mph - N/A   Clear
7:53 AM 19.9 °F 14.9 °F 10.9 °F 68% 30.56 in 10.0 mi North 3.5 mph - N/A   Clear
8:53 AM 21.0 °F 13.4 °F 10.9 °F 65% 30.58 in 10.0 mi NE 5.8 mph - N/A   Clear
9:53 AM 21.9 °F 17.2 °F 10.0 °F 60% 30.59 in 10.0 mi Variable 3.5 mph - N/A   Clear
10:53 AM 25.0 °F 19.3 °F 10.9 °F 55% 30.59 in 10.0 mi Variable 4.6 mph - N/A   Clear
11:53 AM 26.1 °F 20.5 °F 10.9 °F 53% 30.57 in 10.0 mi Variable 4.6 mph - N/A   Clear
12:53 PM 27.0 °F 23.0 °F 10.0 °F 49% 30.54 in 10.0 mi Variable 3.5 mph - N/A   Clear
1:53 PM 28.0 °F 20.8 °F 10.0 °F 47% 30.52 in 10.0 mi Variable 6.9 mph - N/A   Clear
2:53 PM 30.0 °F 24.1 °F 10.9 °F 45% 30.51 in 10.0 mi Variable 5.8 mph - N/A   Clear
3:53 PM 28.9 °F 23.9 °F 10.0 °F 45% 30.51 in 10.0 mi Variable 4.6 mph - N/A   Clear
4:53 PM 27.0 °F - 10.0 °F 49% 30.51 in 10.0 mi Calm Calm - N/A   Clear
5:53 PM 26.1 °F - 10.0 °F 51% 30.52 in 10.0 mi Calm Calm - N/A   Clear
6:53 PM 24.1 °F 19.7 °F 10.9 °F 57% 30.52 in 10.0 mi NE 3.5 mph - N/A   Clear
7:53 PM 23.0 °F - 12.9 °F 65% 30.52 in 10.0 mi Calm Calm - N/A   Clear
8:53 PM 21.0 °F - 14.0 °F 74% 30.50 in 10.0 mi Calm Calm - N/A   Clear
9:53 PM 21.0 °F - 15.1 °F 78% 30.48 in 10.0 mi Calm Calm - N/A   Clear
10:53 PM 19.9 °F - 12.9 °F 74% 30.46 in 10.0 mi Calm Calm - N/A   Clear
11:53 PM 19.9 °F - 15.1 °F 81% 30.44 in 10.0 mi Calm Calm - N/A   Clear